FW9893 Weather Reports


time (UTC)temp
C
wind
direction
speed
KPH
gust
KPH
rain 1hr
cm
rain 24hr
cm
rain mn
cm
humidity
%
barometer
mb
20260507113035 6 242 3.2 8.0 0.00 0.00 0.00 82 1014.0
20260507111533 6 304 1.6 8.0 0.00 0.00 0.00 81 1013.9
20260507110046 6 261 1.6 8.0 0.00 0.00 0.00 80 1014.0
20260507104543 6 234 1.6 9.7 0.00 0.00 0.00 79 1013.8
20260507103047 6 163 1.6 9.7 0.00 0.00 0.00 79 1013.9
20260507101534 6 204 1.6 8.0 0.00 0.00 0.00 78 1014.0
20260507100045 6 251 1.6 8.0 0.00 0.00 0.00 78 1014.0
20260507094544 6 252 3.2 12.9 0.00 0.00 0.00 78 1014.1
20260507093040 7 292 1.6 11.3 0.00 0.00 0.00 77 1014.3
20260507091541 7 221 1.6 8.0 0.00 0.00 0.00 76 1014.4
20260507084556 7 211 3.2 8.0 0.00 0.00 0.00 74 1014.6
20260507083158 7 243 1.6 11.3 0.00 0.00 0.00 74 1014.9
20260507081553 7 261 3.2 12.9 0.00 0.00 0.00 73 1015.0
20260507080107 7 286 1.6 9.7 0.00 0.00 0.00 71 1015.2
20260507074559 7 254 3.2 12.9 0.00 0.00 0.00 70 1015.3
20260507073050 7 252 1.6 9.7 0.00 0.00 0.00 69 1015.5
20260507071709 7 198 0.0 8.0 0.00 0.00 0.00 67 1015.7
20260507070106 7 148 1.6 6.4 0.00 0.00 0.00 65 1015.8
20260507064634 7 240 1.6 6.4 0.00 0.00 0.00 62 1016.1
20260507063053 8 219 1.6 6.4 0.00 0.00 0.00 61 1016.0
20260507061611 8 289 0.0 4.8 0.00 0.00 0.00 59 1016.2
20260507060116 8 228 0.0 6.4 0.00 0.00 0.00 58 1016.4
20260507054617 8 273 1.6 9.7 0.00 0.00 0.00 56 1016.3
20260507053111 8 329 3.2 8.0 0.00 0.00 0.00 55 1016.3
20260507051612 8 217 1.6 6.4 0.00 0.00 0.00 55 1016.4
20260507050140 8 234 0.0 4.8 0.00 0.00 0.00 53 1016.5
20260507044620 7 323 1.6 4.8 0.00 0.00 0.00 52 1016.5
20260507043114 7 209 0.0 4.8 0.00 0.00 0.00 53 1016.7
20260507041559 6 251 0.0 0.0 0.00 0.00 0.00 54 1016.7
20260507040115 6 251 0.0 0.0 0.00 0.00 0.00 55 1016.7
20260507034612 5 251 0.0 0.0 0.00 0.00 0.00 57 1016.8
20260507033110 5 251 0.0 0.0 0.00 0.00 0.00 58 1016.9
20260507031603 5 251 0.0 1.6 0.00 0.00 0.00 58 1017.1
20260507030108 5 251 0.0 1.6 0.00 0.00 0.00 57 1017.0
20260507024640 6 251 0.0 3.2 0.00 0.00 0.00 54 1017.1
20260507023122 6 251 0.0 3.2 0.00 0.00 0.00 52 1016.8
20260507021622 7 251 0.0 1.6 0.00 0.00 0.00 49 1016.7
20260507020121 8 251 0.0 1.6 0.00 0.00 0.00 45 1016.7
20260507014527 10 251 0.0 3.2 0.00 0.00 0.00 43 1016.6
20260507013409 11 251 0.0 1.6 0.00 0.00 0.00 41 1016.6
20260507013158 11 251 0.0 1.6 0.00 0.00 0.00 41 1016.6
20260507011553 12 251 1.6 3.2 0.00 0.00 0.00 37 1016.5
20260507004607 14 251 0.0 9.7 0.00 0.00 0.00 32 1016.7
20260507003052 15 277 0.0 4.8 0.00 0.00 0.00 32 1016.8
20260507001556 16 235 0.0 8.0 0.00 0.00 0.00 29 1017.1
20260506234600 16 342 1.6 6.4 0.00 0.00 0.00 28 1017.2
20260506233059 16 283 1.6 6.4 0.00 0.00 0.00 29 1017.5
20260506231612 16 209 3.2 9.7 0.00 0.00 0.00 28 1017.3
20260506230110 16 360 4.8 12.9 0.00 0.00 0.00 28 1017.5
20260506224559 15 346 3.2 8.0 0.00 0.00 0.00 30 1017.5
20260506223110 16 314 3.2 14.5 0.00 0.00 0.00 28 1017.7
20260506221610 16 265 3.2 11.3 0.00 0.00 0.00 29 1017.8
20260506220134 16 317 1.6 14.5 0.00 0.00 0.00 26 1017.9
20260506214558 16 265 3.2 8.0 0.00 0.00 0.00 28 1017.8
20260506213106 16 246 4.8 12.9 0.00 0.00 0.00 28 1018.0
20260506211601 16 255 4.8 14.5 0.00 0.00 0.00 27 1018.3
20260506210510 15 261 4.8 14.5 0.00 0.00 0.00 29 1018.6
20260506204535 16 298 4.8 22.5 0.00 0.00 0.00 28 1018.6
20260506203031 16 309 3.2 14.5 0.00 0.00 0.00 29 1018.8
20260506201537 16 285 3.2 16.1 0.00 0.00 0.00 29 1019.0
20260506200032 15 217 3.2 8.0 0.00 0.00 0.00 32 1019.1
20260506194535 15 304 4.8 14.5 0.00 0.00 0.00 29 1019.3
20260506193035 15 310 4.8 14.5 0.00 0.00 0.00 30 1019.5
20260506191535 16 307 1.6 16.1 0.00 0.00 0.00 31 1019.4
20260506190032 15 339 4.8 19.3 0.00 0.00 0.00 29 1019.8
20260506184538 15 346 4.8 11.3 0.00 0.00 0.00 31 1019.4
20260506183131 15 109 4.8 14.5 0.00 0.00 0.00 30 1019.7
20260506181538 15 36 6.4 12.9 0.00 0.00 0.00 30 1019.9
20260506180038 15 348 4.8 25.7 0.00 0.00 0.00 34 1019.9
20260506174536 14 40 3.2 12.9 0.00 0.00 0.00 32 1020.1
20260506173041 14 296 3.2 16.1 0.00 0.00 0.00 32 1020.3
20260506171539 13 290 3.2 9.7 0.00 0.00 0.00 35 1020.3
20260506170038 13 240 4.8 14.5 0.00 0.00 0.00 34 1020.6
20260506164531 13 269 3.2 11.3 0.00 0.00 0.00 35 1020.7
20260506163036 13 223 3.2 14.5 0.00 0.00 0.00 34 1020.8
20260506161553 12 66 3.2 9.7 0.00 0.00 0.00 33 1020.8
20260506160045 12 328 4.8 9.7 0.00 0.00 0.00 36 1020.6
20260506154535 12 221 1.6 9.7 0.00 0.00 0.00 38 1020.7
20260506153035 12 282 3.2 9.7 0.00 0.00 0.00 40 1020.8
20260506151543 11 233 1.6 6.4 0.00 0.00 0.00 40 1020.8
20260506150032 11 134 1.6 8.0 0.00 0.00 0.00 42 1020.5
20260506144550 10 207 0.0 6.4 0.00 0.00 0.00 44 1020.7
20260506143036 10 39 3.2 11.3 0.00 0.00 0.00 46 1020.6
20260506141534 9 90 1.6 4.8 0.00 0.00 0.00 50 1020.5
20260506140040 8 275 0.0 6.4 0.00 0.00 0.00 54 1020.5
20260506134542 7 265 1.6 4.8 0.00 0.00 0.00 56 1020.4
20260506133036 6 297 0.0 4.8 0.00 0.00 0.00 60 1020.1
20260506131552 5 324 0.0 4.8 0.00 0.00 0.00 65 1020.2
20260506130041 4 265 1.6 4.8 0.00 0.00 0.00 69 1019.9
20260506124610 2 287 0.0 1.6 0.00 0.00 0.00 77 1020.0
20260506123051 1 287 0.0 0.0 0.00 0.00 0.00 78 1019.5
20260506121539 1 287 0.0 0.0 0.00 0.00 0.00 78 1019.4
20260506120053 0 290 0.0 1.6 0.00 0.00 0.00 77 1019.1
20260506114552 1 284 0.0 0.0 0.00 0.00 0.00 76 1019.0